DW3560 Weather Reports


time (UTC)temp
C
wind
direction
speed
KPH
gust
KPH
rain 1hr
cm
rain 24hr
cm
rain mn
cm
humidity
%
barometer
mb
20260901084023 13 249 3.2 12.9 0.00 0.00 0.00 80 1014.4
20260901083502 13 248 3.2 8.0 0.00 0.00 0.00 81 1014.4
20260901083023 13 252 3.2 11.3 0.00 0.00 0.00 81 1014.4
20260901082502 13 250 3.2 11.3 0.00 0.00 0.00 81 1014.4
20260901082001 13 235 3.2 9.7 0.00 0.00 0.00 81 1014.4
20260901081502 13 237 3.2 9.7 0.00 0.00 0.00 81 1014.4
20260901081023 13 243 3.2 8.0 0.00 0.00 0.00 81 1014.4
20260901080502 13 239 3.2 9.7 0.00 0.00 0.00 81 1014.4
20260901080002 13 241 4.8 14.5 0.00 0.00 0.00 81 1014.4
20260901075502 13 244 3.2 14.5 0.00 0.00 0.00 81 1014.4
20260901075002 13 242 3.2 11.3 0.00 0.00 0.00 81 1014.4
20260901074523 13 246 3.2 11.3 0.00 0.00 0.00 81 1014.4
20260901074002 13 243 3.2 12.9 0.00 0.00 0.00 81 1014.4
20260901073502 13 241 3.2 12.9 0.00 0.00 0.00 81 1014.4
20260901073002 13 250 3.2 11.3 0.00 0.00 0.00 81 1014.4
20260901072502 13 258 3.2 11.3 0.00 0.00 0.00 81 1014.4
20260901072002 13 254 3.2 6.4 0.00 0.00 0.00 80 1014.4
20260901071502 13 254 3.2 6.4 0.00 0.00 0.00 80 1014.4
20260901071002 13 252 3.2 11.3 0.00 0.00 0.00 80 1014.4
20260901070523 13 245 3.2 11.3 0.00 0.00 0.00 80 1014.4
20260901070009 13 246 3.2 12.9 0.00 0.00 0.00 80 1014.4
20260901065523 13 243 4.8 12.9 0.00 0.00 0.00 80 1014.4
20260901065002 13 240 4.8 11.3 0.00 0.00 0.00 80 1014.4
20260901064502 13 246 4.8 14.5 0.00 0.00 0.00 80 1014.4
20260901064002 13 247 4.8 14.5 0.00 0.00 0.00 80 1014.4
20260901063502 13 249 6.4 16.1 0.00 0.00 0.00 80 1014.4
20260901063001 13 248 4.8 16.1 0.00 0.00 0.00 80 1014.4
20260901062502 13 245 4.8 12.9 0.00 0.00 0.00 80 1014.4
20260901062002 13 250 4.8 12.9 0.00 0.00 0.00 80 1014.4
20260901061502 13 256 3.2 12.9 0.00 0.00 0.00 80 1014.4
20260901061002 13 259 3.2 12.9 0.00 0.00 0.00 81 1014.4
20260901060502 13 255 4.8 17.7 0.00 0.00 0.00 81 1014.4
20260901060023 13 253 4.8 17.7 0.00 0.00 0.00 81 1014.4
20260901055502 13 254 3.2 14.5 0.00 0.00 0.00 82 1014.4
20260901055023 13 247 3.2 11.3 0.00 0.00 0.00 82 1014.4
20260901054502 13 255 4.8 14.5 0.00 0.00 0.00 82 1014.4
20260901054023 13 259 4.8 14.5 0.00 0.00 0.00 82 1014.4
20260901053502 13 256 4.8 12.9 0.00 0.00 0.00 82 1012.5
20260901053002 13 257 6.4 14.5 0.00 0.00 0.00 82 1012.5
20260901052502 13 253 4.8 14.5 0.00 0.00 0.00 82 1012.5
20260901052002 13 252 4.8 17.7 0.00 0.00 0.00 82 1012.5
20260901051502 13 256 3.2 17.7 0.00 0.00 0.00 82 1012.5
20260901051002 13 257 4.8 17.7 0.00 0.00 0.00 82 1012.5
20260901050502 13 257 4.8 17.7 0.00 0.00 0.00 82 1012.5
20260901050002 13 252 4.8 17.7 0.00 0.00 0.00 82 1012.5
20260901045502 13 255 4.8 14.5 0.00 0.00 0.00 82 1012.5
20260901045002 13 258 4.8 14.5 0.00 0.00 0.00 82 1012.5
20260901044502 13 254 4.8 14.5 0.00 0.00 0.00 82 1012.5
20260901044002 13 252 4.8 14.5 0.00 0.00 0.00 82 1012.5
20260901043502 13 261 4.8 14.5 0.00 0.00 0.00 82 1012.5
20260901043023 13 259 4.8 12.9 0.00 0.00 0.00 82 1012.5
20260901042502 13 251 4.8 16.1 0.00 0.00 0.00 82 1012.5
20260901042002 13 252 6.4 16.1 0.00 0.00 0.00 82 1012.5
20260901041502 13 247 6.4 16.1 0.00 0.00 0.00 82 1012.5
20260901041002 13 246 6.4 20.9 0.00 0.00 0.00 82 1012.5
20260901040523 13 248 4.8 20.9 0.00 0.00 0.00 82 1012.5
20260901040002 13 257 4.8 19.3 0.00 0.00 0.00 82 1012.5
20260901035523 13 258 4.8 19.3 0.00 0.00 0.00 82 1012.5
20260901035002 13 253 3.2 12.9 0.00 0.00 0.00 82 1012.5
20260901034523 13 260 4.8 14.5 0.00 0.00 0.00 82 1012.5
20260901034002 13 260 6.4 16.1 0.00 0.00 0.00 82 1012.5
20260901033502 13 258 6.4 16.1 0.00 0.00 0.00 82 1012.5
20260901033002 13 267 4.8 14.5 0.00 0.00 0.00 82 1012.5
20260901032502 13 269 3.2 16.1 0.00 0.00 0.00 82 1012.5
20260901032023 13 267 3.2 16.1 0.00 0.00 0.00 82 1012.5
20260901031502 13 273 3.2 9.7 0.00 0.00 0.00 82 1012.5
20260901031002 13 277 3.2 9.7 0.00 0.00 0.00 82 1012.5
20260901030502 13 262 3.2 11.3 0.00 0.00 0.00 82 1012.5
20260901030002 13 252 4.8 14.5 0.00 0.00 0.00 81 1012.5
20260901025502 13 259 4.8 14.5 0.00 0.00 0.00 81 1012.5
20260901025002 14 262 4.8 16.1 0.00 0.00 0.00 81 1012.5
20260901024506 14 259 4.8 16.1 0.00 0.00 0.00 81 1012.5
20260901024023 14 259 4.8 14.5 0.00 0.00 0.00 81 1012.5
20260901023525 14 271 3.2 12.9 0.00 0.00 0.00 81 1012.5
20260901023002 14 271 4.8 16.1 0.00 0.00 0.00 82 1012.5
20260901022502 14 261 6.4 17.7 0.00 0.00 0.00 81 1012.5
20260901022002 15 262 6.4 19.3 0.00 0.00 0.00 81 1012.5
20260901021502 15 271 4.8 19.3 0.00 0.00 0.00 80 1012.5
20260901021002 15 268 4.8 16.1 0.00 0.00 0.00 80 1012.5
20260901020502 15 267 3.2 16.1 0.00 0.00 0.00 80 1012.5
20260901020002 15 265 3.2 11.3 0.00 0.00 0.00 80 1012.5
20260901015502 15 274 3.2 14.5 0.00 0.00 0.00 80 1012.5
20260901015002 15 277 4.8 14.5 0.00 0.00 0.00 79 1012.5
20260901014523 15 261 4.8 14.5 0.00 0.00 0.00 79 1012.5
20260901014002 15 271 4.8 14.5 0.00 0.00 0.00 79 1012.5
20260901013523 15 279 3.2 14.5 0.00 0.00 0.00 78 1012.5
20260901013002 16 269 3.2 12.9 0.00 0.00 0.00 78 1012.5
20260901012523 16 276 3.2 12.9 0.00 0.00 0.00 77 1012.5
20260901012002 16 266 4.8 17.7 0.00 0.00 0.00 78 1012.5
20260901011502 16 260 6.4 20.9 0.00 0.00 0.00 77 1012.5
20260901011023 16 264 6.4 20.9 0.00 0.00 0.00 76 1012.5
20260901010502 16 271 4.8 20.9 0.00 0.00 0.00 75 1012.5
20260901010002 17 277 3.2 12.9 0.00 0.00 0.00 76 1012.5
20260901005523 17 266 4.8 17.7 0.00 0.00 0.00 76 1012.5
20260901005002 17 259 8.0 17.7 0.00 0.00 0.00 75 1012.5
20260901004502 17 273 6.4 16.1 0.00 0.00 0.00 75 1012.5
20260901004003 17 294 4.8 16.1 0.00 0.00 0.00 75 1012.5
20260901003502 17 281 3.2 16.1 0.00 0.00 0.00 75 1012.5
20260901003023 17 279 3.2 16.1 0.00 0.00 0.00 76 1012.5
20260901002502 17 272 4.8 19.3 0.00 0.00 0.00 75 1012.5
20260901002002 17 273 4.8 19.3 0.00 0.00 0.00 75 1012.5
20260901001502 16 299 4.8 12.9 0.00 0.00 0.00 76 1012.5
20260901001023 16 280 6.4 17.7 0.00 0.00 0.00 75 1012.5
20260901000502 16 264 6.4 19.3 0.00 0.00 0.00 75 1012.5
20260901000002 17 275 6.4 19.3 0.00 0.00 0.00 75 1012.5
20260831235502 17 281 4.8 17.7 0.00 0.00 0.00 75 1012.5
20260831235002 17 281 3.2 12.9 0.00 0.00 0.00 74 1012.5
20260831234502 17 276 4.8 19.3 0.00 0.00 0.00 74 1012.5
20260831234023 17 278 6.4 25.7 0.00 0.00 0.00 74 1012.5
20260831233502 17 270 4.8 25.7 0.00 0.00 0.00 73 1012.5
20260831233002 17 257 6.4 17.7 0.00 0.00 0.00 74 1012.5
20260831232523 17 260 6.4 17.7 0.00 0.00 0.00 74 1012.5
20260831232002 17 268 6.4 19.3 0.00 0.00 0.00 74 1012.5
20260831231502 17 271 4.8 19.3 0.00 0.00 0.00 73 1012.5
20260831231002 17 260 4.8 16.1 0.00 0.00 0.00 73 1012.5
20260831230523 17 267 4.8 16.1 0.00 0.00 0.00 73 1012.5
20260831230002 17 298 3.2 16.1 0.00 0.00 0.00 74 1012.5
20260831225523 17 277 4.8 17.7 0.00 0.00 0.00 73 1012.5
20260831225002 17 256 6.4 20.9 0.00 0.00 0.00 74 1012.5
20260831224502 17 265 6.4 20.9 0.00 0.00 0.00 74 1012.5
20260831224002 17 269 6.4 20.9 0.00 0.00 0.00 73 1012.5
20260831223503 17 269 6.4 14.5 0.00 0.00 0.00 73 1012.5
20260831223002 17 268 6.4 17.7 0.00 0.00 0.00 74 1012.5
20260831222502 17 267 6.4 22.5 0.00 0.00 0.00 74 1012.5
20260831222003 17 279 4.8 22.5 0.00 0.00 0.00 75 1012.5
20260831221502 17 268 6.4 19.3 0.00 0.00 0.00 76 1012.5
20260831221002 17 262 4.8 19.3 0.00 0.00 0.00 76 1012.5
20260831220523 17 278 3.2 16.1 0.00 0.00 0.00 76 1012.5
20260831220002 17 264 4.8 14.5 0.00 0.00 0.00 77 1012.5
20260831215523 17 266 4.8 14.5 0.00 0.00 0.00 77 1012.5
20260831215002 17 273 3.2 16.1 0.00 0.00 0.00 79 1012.5
20260831214502 16 264 4.8 16.1 0.00 0.00 0.00 78 1012.5
20260831214002 16 264 4.8 16.1 0.00 0.00 0.00 80 1012.5
20260831213502 16 253 4.8 16.1 0.00 0.00 0.00 80 1012.5
20260831213002 16 257 4.8 19.3 0.00 0.00 0.00 80 1012.5
20260831212502 16 256 6.4 19.3 0.00 0.00 0.00 80 1012.5
20260831212002 16 251 4.8 17.7 0.00 0.00 0.00 80 1012.5
20260831211502 16 262 6.4 16.1 0.00 0.00 0.00 80 1012.5
20260831211002 16 274 4.8 16.1 0.00 0.00 0.00 80 1012.5
20260831210502 16 266 3.2 12.9 0.00 0.00 0.00 80 1012.5
20260831210002 16 270 3.2 17.7 0.00 0.00 0.00 81 1012.5
20260831205502 16 280 4.8 17.7 0.00 0.00 0.00 81 1012.5
20260831205002 16 271 4.8 17.7 0.00 0.00 0.00 81 1012.5
20260831204502 15 264 4.8 17.7 0.00 0.00 0.00 82 1012.5
20260831204002 15 262 4.8 16.1 0.00 0.00 0.00 82 1012.5
20260831203502 15 260 4.8 16.1 0.00 0.00 0.00 82 1012.5
20260831203002 15 256 3.2 17.7 0.00 0.00 0.00 82 1012.5
20260831202502 15 268 4.8 17.7 0.00 0.00 0.00 83 1012.5
20260831202002 15 268 4.8 16.1 0.00 0.00 0.00 83 1012.5
20260831201502 15 251 3.2 9.7 0.00 0.00 0.00 83 1012.5
20260831201002 15 244 4.8 14.5 0.00 0.00 0.00 84 1012.5
20260831200502 15 256 3.2 14.5 0.00 0.00 0.00 84 1012.5
20260831200002 15 265 3.2 16.1 0.00 0.00 0.00 84 1012.5
20260831195502 15 255 4.8 19.3 0.00 0.00 0.00 84 1012.5
20260831195002 15 257 4.8 19.3 0.00 0.00 0.00 84 1012.5
20260831194502 15 256 4.8 16.1 0.00 0.00 0.00 84 1012.5
20260831194002 15 256 4.8 16.1 0.00 0.00 0.00 84 1012.5
20260831193502 15 256 4.8 16.1 0.00 0.00 0.00 84 1012.5
20260831193002 15 259 4.8 12.9 0.00 0.00 0.00 85 1012.5
20260831192502 15 256 4.8 17.7 0.00 0.00 0.00 85 1012.5
20260831192002 15 254 4.8 17.7 0.00 0.00 0.00 85 1012.5
20260831191523 14 250 4.8 14.5 0.00 0.00 0.00 85 1012.5
20260831191023 14 246 4.8 14.5 0.00 0.00 0.00 86 1012.5
20260831190503 14 249 4.8 17.7 0.00 0.00 0.00 86 1012.5
20260831190002 14 250 6.4 17.7 0.00 0.00 0.00 87 1012.5
20260831185502 14 250 6.4 16.1 0.00 0.00 0.00 87 1012.5
20260831185002 14 250 4.8 16.1 0.00 0.00 0.00 87 1012.5
20260831184502 14 247 4.8 12.9 0.00 0.00 0.00 88 1012.5
20260831184002 14 241 4.8 12.9 0.00 0.00 0.00 88 1012.5
20260831183523 14 244 3.2 12.9 0.00 0.00 0.00 88 1012.5
20260831183002 13 255 4.8 14.5 0.00 0.00 0.00 88 1012.5
20260831182502 13 249 6.4 14.5 0.00 0.00 0.00 88 1012.5
20260831182002 13 247 6.4 17.7 0.00 0.00 0.00 88 1012.5
20260831181502 13 248 6.4 17.7 0.00 0.00 0.00 87 1012.5
20260831181002 13 247 4.8 16.1 0.00 0.00 0.00 87 1012.5
20260831180523 13 244 4.8 16.1 0.00 0.00 0.00 87 1012.5
20260831180002 13 246 4.8 14.5 0.00 0.00 0.00 87 1012.5
20260831175502 13 243 3.2 14.5 0.00 0.00 0.00 87 1012.5
20260831175023 13 245 3.2 17.7 0.00 0.00 0.00 87 1012.5
20260831174502 13 252 3.2 17.7 0.00 0.00 0.00 87 1012.5
20260831174002 13 238 4.8 11.3 0.00 0.00 0.00 87 1012.5
20260831173502 13 229 3.2 11.3 0.00 0.00 0.00 87 1012.5
20260831173002 13 241 3.2 12.9 0.00 0.00 0.00 87 1012.5
20260831172502 13 250 4.8 16.1 0.00 0.00 0.00 87 1012.5
20260831172002 13 246 6.4 16.1 0.00 0.00 0.00 87 1012.5
20260831171523 13 238 4.8 14.5 0.00 0.00 0.00 87 1012.5
20260831171002 13 246 3.2 16.1 0.00 0.00 0.00 87 1012.5
20260831170502 13 248 3.2 16.1 0.00 0.00 0.00 87 1012.5
20260831170023 13 249 3.2 14.5 0.00 0.00 0.00 87 1012.5
20260831165502 13 251 4.8 14.5 0.00 0.00 0.00 88 1012.5
20260831165023 13 245 3.2 14.5 0.00 0.00 0.00 88 1012.5
20260831164502 13 243 3.2 14.5 0.00 0.00 0.00 88 1012.5
20260831164023 13 248 3.2 14.5 0.00 0.00 0.00 88 1012.5
20260831163502 13 245 3.2 12.9 0.00 0.00 0.00 89 1012.5
20260831163002 13 240 3.2 14.5 0.00 0.00 0.00 89 1012.5
20260831162503 13 241 3.2 14.5 0.00 0.00 0.00 89 1012.5
20260831162002 13 245 4.8 9.7 0.00 0.00 0.00 89 1012.5
20260831161502 13 254 4.8 14.5 0.00 0.00 0.00 89 1012.5
20260831161002 12 245 4.8 14.5 0.00 0.00 0.00 89 1012.5
20260831160502 12 235 3.2 12.9 0.00 0.00 0.00 89 1012.5
20260831160002 12 228 3.2 11.3 0.00 0.00 0.00 90 1012.5
20260831155502 12 228 3.2 11.3 0.00 0.00 0.00 90 1012.5
20260831155002 12 230 1.6 8.0 0.00 0.00 0.00 90 1012.5
20260831154502 12 231 1.6 8.0 0.00 0.00 0.00 90 1012.5
20260831154002 12 236 3.2 9.7 0.00 0.00 0.00 90 1012.5
20260831153523 12 230 3.2 9.7 0.00 0.00 0.00 90 1012.5
20260831153002 12 234 1.6 9.7 0.00 0.00 0.00 91 1012.5
20260831152523 12 239 1.6 9.7 0.00 0.00 0.00 91 1012.5
20260831152002 12 240 3.2 12.9 0.00 0.00 0.00 91 1012.5
20260831151524 12 251 3.2 12.9 0.00 0.00 0.00 91 1012.5
20260831151024 12 250 3.2 11.3 0.00 0.00 0.00 91 1012.5
20260831150502 12 246 4.8 14.5 0.00 0.00 0.00 91 1012.5
20260831150003 12 242 3.2 14.5 0.00 0.00 0.00 92 1012.5
20260831145502 12 239 3.2 11.3 0.00 0.00 0.00 92 1012.5
20260831145002 12 249 3.2 11.3 0.00 0.00 0.00 92 1012.5
20260831144502 12 247 3.2 11.3 0.00 0.00 0.00 92 1012.5
20260831144002 12 229 3.2 6.4 0.00 0.00 0.00 92 1012.5
20260831143523 12 223 3.2 11.3 0.00 0.00 0.00 92 1012.5
20260831143002 12 235 3.2 12.9 0.00 0.00 0.00 92 1012.5
20260831142502 12 239 3.2 11.3 0.00 0.00 0.00 92 1012.5
20260831142023 12 241 3.2 11.3 0.00 0.00 0.00 92 1012.5
20260831141502 12 243 3.2 8.0 0.00 0.00 0.00 92 1012.5
20260831141002 12 246 3.2 9.7 0.00 0.00 0.00 92 1012.5
20260831140502 12 252 3.2 9.7 0.00 0.00 0.00 92 1012.5
20260831140003 12 256 1.6 8.0 0.00 0.00 0.00 92 1012.5
20260831135523 12 254 3.2 8.0 0.00 0.00 0.00 93 1012.5
20260831135002 12 257 3.2 9.7 0.00 0.00 0.00 92 1012.5
20260831134502 12 254 3.2 9.7 0.00 0.00 0.00 92 1012.5
20260831134002 12 246 3.2 9.7 0.00 0.00 0.00 93 1012.5
20260831133523 12 251 3.2 11.3 0.00 0.00 0.00 93 1012.5
20260831133002 12 253 3.2 11.3 0.00 0.00 0.00 93 1012.5
20260831132502 12 247 3.2 11.3 0.00 0.00 0.00 93 1012.5
20260831132002 12 246 3.2 11.3 0.00 0.00 0.00 93 1012.5
20260831131503 12 252 3.2 9.7 0.00 0.00 0.00 93 1012.5
20260831131003 12 245 3.2 8.0 0.00 0.00 0.00 93 1012.5
20260831130502 12 239 3.2 8.0 0.00 0.00 0.00 93 1012.5
20260831130002 12 245 3.2 6.4 0.00 0.00 0.00 93 1012.5
20260831125502 12 249 3.2 6.4 0.00 0.00 0.00 93 1012.5
20260831125024 12 247 1.6 6.4 0.00 0.00 0.00 93 1012.5
20260831124502 12 245 3.2 11.3 0.00 0.00 0.00 93 1012.5
20260831124002 12 247 4.8 11.3 0.00 0.00 0.00 93 1012.5
20260831123502 12 251 3.2 11.3 0.00 0.00 0.00 93 1012.5
20260831123023 12 263 1.6 9.7 0.00 0.00 0.00 93 1012.5
20260831122503 12 263 1.6 6.4 0.00 0.00 0.00 93 1012.5
20260831122003 12 252 3.2 12.9 0.00 0.00 0.00 92 1012.5
20260831121502 12 247 3.2 12.9 0.00 0.00 0.00 92 1012.5
20260831121002 12 246 3.2 12.9 0.00 0.00 0.00 92 1012.5
20260831120524 12 252 3.2 12.9 0.00 0.00 0.00 92 1012.5
20260831120023 12 248 4.8 12.9 0.00 0.00 0.00 92 1012.5
20260831115502 12 247 3.2 11.3 0.00 0.00 0.00 92 1012.5
20260831115002 12 251 3.2 11.3 0.00 0.00 0.00 93 1012.5
20260831114502 12 251 3.2 12.9 0.00 0.00 0.00 93 1012.5
20260831114002 12 252 3.2 12.9 0.00 0.00 0.00 93 1012.5
20260831113523 12 253 3.2 12.9 0.00 0.00 0.00 93 1012.5
20260831113002 12 254 4.8 12.9 0.00 0.00 0.00 93 1012.5
20260831112502 12 251 4.8 12.9 0.00 0.00 0.00 93 1012.5
20260831112023 12 254 4.8 12.9 0.00 0.00 0.00 93 1012.5
20260831111503 12 259 4.8 12.9 0.00 0.00 0.00 93 1012.5
20260831111002 12 254 4.8 12.9 0.00 0.00 0.00 92 1012.5
20260831110523 12 250 3.2 11.3 0.00 0.00 0.00 92 1012.5
20260831110023 12 253 3.2 11.3 0.00 0.00 0.00 92 1012.5
20260831105503 12 253 3.2 11.3 0.00 0.00 0.00 92 1012.5
20260831105002 12 254 3.2 9.7 0.00 0.00 0.00 92 1012.5
20260831104524 12 246 3.2 9.7 0.00 0.00 0.00 92 1012.5
20260831104002 12 239 3.2 9.7 0.00 0.00 0.00 92 1012.5
20260831103502 12 238 1.6 9.7 0.00 0.00 0.00 92 1012.5
20260831103002 12 235 1.6 6.4 0.00 0.00 0.00 92 1012.5
20260831102503 12 234 1.6 4.8 0.00 0.00 0.00 92 1012.5
20260831102002 12 233 1.6 6.4 0.00 0.00 0.00 92 1012.5
20260831101502 12 236 1.6 6.4 0.00 0.00 0.00 92 1012.5
20260831101002 12 238 1.6 4.8 0.00 0.00 0.00 92 1012.5
20260831100502 12 238 1.6 4.8 0.00 0.00 0.00 92 1012.5
20260831100003 12 237 1.6 6.4 0.00 0.00 0.00 92 1012.5
20260831095503 12 240 1.6 6.4 0.00 0.00 0.00 92 1012.5
20260831095002 12 245 1.6 6.4 0.00 0.00 0.00 92 1012.5
20260831094502 12 246 1.6 4.8 0.00 0.00 0.00 92 1012.5
20260831094002 12 244 1.6 4.8 0.00 0.00 0.00 92 1012.5
20260831093502 12 243 1.6 4.8 0.00 0.00 0.00 92 1012.5
20260831093002 12 241 1.6 4.8 0.00 0.00 0.00 92 1012.5
20260831092503 12 242 1.6 6.4 0.00 0.00 0.00 92 1012.5
20260831092002 12 250 1.6 6.4 0.00 0.00 0.00 92 1012.5
20260831091502 12 256 1.6 6.4 0.00 0.00 0.00 91 1012.5
20260831091002 12 269 1.6 6.4 0.00 0.00 0.00 91 1012.5
20260831090502 12 289 0.0 3.2 0.00 0.00 0.00 91 1012.5
20260831090003 12 291 0.0 4.8 0.00 0.00 0.00 92 1012.5
20260831085503 12 270 0.0 4.8 0.00 0.00 0.00 91 1012.5
20260831085023 12 254 1.6 4.8 0.00 0.00 0.00 91 1012.5
20260831084502 12 254 0.0 4.8 0.00 0.00 0.00 91 1012.5